Regional Weather Roundup
Issued by NWS

Home | Current Version | Previous Version | Graphics & Text | Print | Product List | Glossary On
Versions: 1 2 3 4 5 6 7 8 9 10 11 12 13 14 15 16 17 18 19 20 21 22 23 24 25 26 27 28 29 30 31 32 33 34 35 36 37 38 39 40 41 42 43 44 45 46 47 48 49 50
000
ASUS43 KLMK 240310
RWRKY
KENTUCKY REGIONAL WEATHER ROUNDUP
NATIONAL WEATHER SERVICE LOUISVILLE KY
1000 PM EST SUN NOV 23 2014

NOTE "FAIR" INDICATES FEW OR NO CLOUDS BELOW 12,000 FEET
WITH NO SIGNIFICANT WEATHER AND/OR OBSTRUCTIONS TO VISIBILITY.

KYZ001>023-026-027-061>063-070>075-240400-
WESTERN AND SOUTH CENTRAL KENTUCKY

CITY           SKY/WX    TMP DP  RH WIND       PRES   REMARKS
PADUCAH        CLOUDY    58  56  93 SW16G24   29.35R
HENDERSON      CLOUDY    57  55  94 SW17G26   29.29R
OWENSBORO      LGT RAIN  59  58  96 SW15G24   29.29R
HOPKINSVILLE   CLOUDY    59  59 100 SW21      29.38R
BOWLING GREEN  LGT RAIN  60  56  86 S21G28    29.35S
GLASGOW        LGT RAIN  58  58 100 S14G21    29.37R
$$

KYZ024-025-028>034-038-045-046-053-240400-
NORTH CENTRAL KENTUCKY

CITY           SKY/WX    TMP DP  RH WIND       PRES   REMARKS
LOUISVILLE/SDF LGT RAIN  60  55  83 S14G28    29.30F
LOUISVILLE/LOU CLOUDY    59  55  87 S10G23    29.31F
FORT KNOX      CLOUDY    58  55  91 S18G25    29.30F
$$

KYZ035>037-039>044-047>052-055>060-089>105-240400-
NORTHEAST KENTUCKY

CITY           SKY/WX    TMP DP  RH WIND       PRES   REMARKS
LEXINGTON      CLOUDY    58  54  86 S22G31    29.38F
COVINGTON      CLOUDY    57  53  86 SE20G32   29.32F
FRANKFORT      CLOUDY    57  54  89 S14G22    29.34F
$$

KYZ054-064>069-076>088-106>120-240400-
SOUTHEAST KENTUCKY

CITY           SKY/WX    TMP DP  RH WIND       PRES   REMARKS
JACKSON        CLOUDY    58  52  80 VRB7      29.46F
LONDON         CLOUDY    62  52  69 S18G25    29.46F
SOMERSET       RAIN      57  55  94 S17G31    29.44F
MIDDLESBORO    CLOUDY    56  52  86 S5        29.55S
MONTICELLO     CLOUDY    60  56  87 S20G29    29.45F
$$



USA.gov is the U.S. government's official web portal to all federal, state and local government web resources and services.